Location: El Álamo
(40.2307°N, 3.9945°W)
Time: 03:21:54
(UTC+00:00)

Lacrosse 5 rocket - Pass Details

Date: 19 May 2025
Orbit: 419 x 515 km, 57.0° (Epoch: 23 June)

Event Time Altitude Azimuth Distance (km) Brightness Sun altitude
Rises 21:24:27 0° 321° (NW) 2,476 6.4 -18.2°
Reaches altitude 10° 21:26:44 10° 330° (NNW) 1,581 4.9 -18.5°
Maximum altitude 21:30:03 37° 40° (NE) 696 1.9 -18.9°
Enters shadow 21:30:40 34° 67° (ENE) 742 1.8 -19.0°
